Pagrindinis puslapis
METAR-TAF:

METAR-TAF

Oro uostai :

Adana, Turkija

platuma: 36-59N, ilguma: 035-18E, Aukštis: 20 m

Dabartinis oras

Ataskaita buvo paskelbta 22 minutes, ne 21:20 UTC
Ramus vėjas
Temperatūra 20°C
Drėgmė 83%
Slėgis 1011 hPa
Matomumas 10 km arba daugiau
nėra debesų žemiau 1500 m ir nėra kamuolinių lietaus debesų

METAR: LTAF 082120Z 00000KT CAVOK 20/17 Q1011 NOSIG RMK RWY23 00000KT

Laikas: 00:42 (21:42 UTC)


TAF: trūkstamas

Orai ataskaitas ir orų prognozės (METAR, TAF).

turimą stotys yra geltonos ir raudonos taškus žemėlapyje.

Perkelti pele per norėdami pamatyti stoties vardą.

Tada spustelėkite, norėdami matyti oro stebėjimo ir prognozės.

Norėdami pakeisti žemėlapį: spustelėkite ant žalios mygtukų su juodo kryžiaus žemyn,; žalią mygtuką su brūkšneliu, jei norite nutolinti; arba žalių rodyklių gretimoms žemėlapius.


METAR-TAF: